Weather History for Albert Lea, MN

Change the Weather History Date:

Monday, November 4, 2013

  Actual Average Record
Temperature  
Mean Temperature 40 °F -  
Max Temperature 48 °F 46 °F 71 °F (2008)
Min Temperature 32 °F 30 °F 21 °F (2011)
Degree Days  
Heating Degree Days 25    
Moisture  
Dew Point 38 °F    
Average Humidity 82    
Maximum Humidity 100    
Minimum Humidity 62    
Precipitation  
Precipitation 0.00 in - - ()
Sea Level Pressure  
Sea Level Pressure 29.95 in    
Wind  
Wind Speed 14 mph (South)    
Max Wind Speed 23 mph    
Max Gust Speed 34 mph    
Visibility 9 miles    
Events Rain    
Averages and records for this station are not official NWS values.
T = Trace of Precipitation, MM = Missing Value Source: NWS Daily Summary

Daily Weather History Graph

Daily Weather History Graph

Search for Another Location

Airport:

Trip Planner

Search our weather history database for the weather conditions in past years. The results will help you decide how hot, cold, wet, or windy it might be!

Date:

Astronomy

Nov. 04, 2013 Rise Set
Actual Time 6:53 AM CST 4:59 PM CST
Civil Twilight 6:23 AM CST 5:30 PM CST
Nautical Twilight 5:49 AM CST 6:04 PM CST
Astronomical Twilight 5:15 AM CST 6:37 PM CST
Moon 8:06 AM CST (11/4) 6:02 PM CST (11/4)
Length of Visible Light 11h 06m
Length of Day
10h 06m
New Moon, 2% of the Moon is Illuminated
Nov 4
New Moon
Nov 9
First Quarter
Nov 17
Full
Nov 25
Last Quarter
Dec 2
New

Hourly Weather History & Observations

Time (CST) Temp. Windchill Dew Point Humidity Pressure Visibility Wind Dir Wind Speed Gust Speed Precip Events Conditions
12:10 AM 46.4 °F 38.7 °F 33.8 °F 62% 29.90 in 10.0 mi SSE 20.7 mph 34.5 mph N/A   Scattered Clouds
12:29 AM 46.4 °F 38.3 °F 33.8 °F 62% 29.89 in 10.0 mi SSE 23.0 mph 29.9 mph N/A   Scattered Clouds
12:49 AM 46.4 °F 39.2 °F 33.8 °F 62% 29.89 in 10.0 mi SSE 18.4 mph 31.1 mph N/A   Scattered Clouds
1:10 AM 46.4 °F 38.7 °F 33.8 °F 62% 29.89 in 10.0 mi SSE 20.7 mph 26.5 mph N/A   Scattered Clouds
1:29 AM 46.4 °F 38.7 °F 33.8 °F 62% 29.88 in 10.0 mi SSE 20.7 mph 28.8 mph N/A   Scattered Clouds
1:49 AM 46.4 °F 39.0 °F 35.6 °F 66% 29.89 in 10.0 mi SSE 19.6 mph 29.9 mph N/A   Scattered Clouds
2:10 AM 46.4 °F 39.0 °F 35.6 °F 66% 29.88 in 10.0 mi SSE 19.6 mph 26.5 mph N/A   Scattered Clouds
2:29 AM 46.4 °F 38.5 °F 35.6 °F 66% 29.88 in 10.0 mi SSE 21.9 mph 26.5 mph N/A   Clear
2:50 AM 46.4 °F 39.0 °F 35.6 °F 66% 29.88 in 10.0 mi SSE 19.6 mph 26.5 mph N/A   Scattered Clouds
3:09 AM 46.4 °F 39.2 °F 35.6 °F 66% 29.88 in 10.0 mi SSE 18.4 mph 23.0 mph N/A   Scattered Clouds
3:29 AM 46.4 °F 39.0 °F 35.6 °F 66% 29.87 in 10.0 mi SSE 19.6 mph 26.5 mph N/A   Scattered Clouds
3:50 AM 46.4 °F 39.5 °F 35.6 °F 66% 29.87 in 10.0 mi SSE 17.3 mph 21.9 mph N/A   Clear
4:09 AM 46.4 °F 39.2 °F 35.6 °F 66% 29.87 in 10.0 mi SSE 18.4 mph 25.3 mph N/A   Clear
4:29 AM 44.6 °F 37.8 °F 35.6 °F 71% 29.87 in 10.0 mi SSE 15.0 mph 23.0 mph N/A   Clear
4:50 AM 44.6 °F 37.2 °F 37.4 °F 76% 29.87 in 10.0 mi SSE 17.3 mph 24.2 mph N/A   Clear
5:09 AM 44.6 °F 36.9 °F 37.4 °F 76% 29.86 in 10.0 mi SSE 18.4 mph 25.3 mph N/A   Clear
5:29 AM 44.6 °F 37.2 °F 37.4 °F 76% 29.86 in 10.0 mi SSE 17.3 mph 26.5 mph N/A   Scattered Clouds
5:50 AM 44.6 °F 37.2 °F 37.4 °F 76% 29.86 in 10.0 mi SSE 17.3 mph 24.2 mph N/A   Scattered Clouds
6:09 AM 44.6 °F 38.4 °F 37.4 °F 76% 29.86 in 10.0 mi SSE 12.7 mph 20.7 mph N/A   Scattered Clouds
6:30 AM 44.6 °F 36.9 °F 37.4 °F 76% 29.85 in 10.0 mi SSE 18.4 mph 24.2 mph N/A   Mostly Cloudy
6:49 AM 44.6 °F 37.2 °F 37.4 °F 76% 29.86 in 10.0 mi South 17.3 mph 25.3 mph N/A   Scattered Clouds
7:09 AM 44.6 °F 37.2 °F 37.4 °F 76% 29.85 in 10.0 mi SSE 17.3 mph 23.0 mph N/A   Scattered Clouds
7:30 AM 44.6 °F 37.8 °F 37.4 °F 76% 29.86 in 10.0 mi South 15.0 mph 20.7 mph N/A   Mostly Cloudy
7:49 AM 46.4 °F 40.7 °F 39.2 °F 76% 29.87 in 10.0 mi SSE 12.7 mph 24.2 mph N/A   Overcast
8:09 AM 46.4 °F 40.4 °F 39.2 °F 76% 29.88 in 10.0 mi South 13.8 mph 21.9 mph N/A   Overcast
8:30 AM 46.4 °F 40.7 °F 39.2 °F 76% 29.88 in 10.0 mi South 12.7 mph 21.9 mph N/A   Overcast
8:49 AM 46.4 °F 40.1 °F 41.0 °F 81% 29.88 in 10.0 mi South 15.0 mph 20.7 mph N/A   Overcast
9:09 AM 46.4 °F 40.1 °F 41.0 °F 81% 29.87 in 10.0 mi South 15.0 mph 23.0 mph N/A   Overcast
9:30 AM 46.4 °F 39.8 °F 42.8 °F 87% 29.87 in 10.0 mi South 16.1 mph 21.9 mph N/A   Overcast
9:49 AM 46.4 °F 40.7 °F 42.8 °F 87% 29.87 in 10.0 mi South 12.7 mph 19.6 mph N/A   Overcast
10:10 AM 46.4 °F 41.1 °F 42.8 °F 87% 29.88 in 10.0 mi South 11.5 mph 19.6 mph N/A   Overcast
10:30 AM 48.2 °F - 42.8 °F 82% 29.89 in 10.0 mi South 10.4 mph 16.1 mph N/A   Overcast
10:49 AM 46.4 °F 42.4 °F 44.6 °F 93% 29.90 in 10.0 mi South 8.1 mph - N/A Rain Light Rain
11:10 AM 48.2 °F - 44.6 °F 87% 29.90 in 10.0 mi South 10.4 mph 17.3 mph N/A Rain Light Rain
11:29 AM 48.2 °F - 44.6 °F 87% 29.89 in 10.0 mi SSW 11.5 mph 19.6 mph N/A   Overcast
11:49 AM 48.2 °F - 44.6 °F 87% 29.90 in 10.0 mi SSW 10.4 mph 20.7 mph N/A   Overcast
12:10 PM 48.2 °F - 44.6 °F 87% 29.89 in 7.0 mi South 10.4 mph 17.3 mph N/A   Overcast
12:29 PM 48.2 °F - 44.6 °F 87% 29.89 in 10.0 mi SSW 9.2 mph - N/A   Overcast
12:50 PM 48.2 °F - 44.6 °F 87% 29.89 in 10.0 mi SSW 8.1 mph - N/A   Overcast
1:09 PM 48.2 °F - 44.6 °F 87% 29.90 in 10.0 mi SSW 9.2 mph - N/A   Overcast
1:29 PM 48.2 °F - 44.6 °F 87% 29.90 in 10.0 mi SW 9.2 mph 16.1 mph N/A   Overcast
1:50 PM 46.4 °F 42.9 °F 41.0 °F 81% 29.92 in 10.0 mi WNW 6.9 mph - N/A   Overcast
2:09 PM 44.6 °F 40.2 °F 39.2 °F 81% 29.94 in 10.0 mi WNW 8.1 mph 17.3 mph N/A   Overcast
2:30 PM 44.6 °F 40.2 °F 39.2 °F 81% 29.94 in 10.0 mi WNW 8.1 mph 16.1 mph N/A   Overcast
2:50 PM 46.4 °F 43.5 °F 39.2 °F 76% 29.95 in 10.0 mi NW 5.8 mph - N/A   Overcast
3:09 PM 46.4 °F 43.5 °F 39.2 °F 76% 29.97 in 10.0 mi WNW 5.8 mph - N/A   Overcast
3:30 PM 46.4 °F 43.5 °F 39.2 °F 76% 29.97 in 10.0 mi NW 5.8 mph - N/A   Overcast
3:50 PM 46.4 °F 44.3 °F 39.2 °F 76% 29.98 in 10.0 mi WNW 4.6 mph - N/A   Overcast
4:09 PM 46.4 °F 44.3 °F 39.2 °F 76% 29.99 in 10.0 mi West 4.6 mph - N/A   Mostly Cloudy
4:30 PM 46.4 °F 44.3 °F 39.2 °F 76% 30.00 in 10.0 mi WNW 4.6 mph - N/A   Overcast
4:49 PM 46.4 °F - 39.2 °F 76% 30.00 in 10.0 mi Calm Calm - N/A   Scattered Clouds
5:09 PM 44.6 °F - 39.2 °F 81% 30.01 in 10.0 mi Calm Calm - N/A   Clear
5:29 PM 42.8 °F - 39.2 °F 87% 30.01 in 10.0 mi Calm Calm - N/A   Clear
5:50 PM 42.8 °F - 37.4 °F 81% 30.03 in 10.0 mi Calm Calm - N/A   Clear
6:09 PM 41.0 °F - 39.2 °F 93% 30.03 in 10.0 mi Calm Calm - N/A   Clear
6:29 PM 39.2 °F - 37.4 °F 93% 30.04 in 10.0 mi Calm Calm - N/A   Clear
6:50 PM 37.4 °F - 37.4 °F 100% 30.05 in 10.0 mi Calm Calm - N/A   Clear
7:10 PM 35.6 °F - 35.6 °F 100% 30.06 in 7.0 mi Calm Calm - N/A   Clear
7:29 PM 37.4 °F - 37.4 °F 100% 30.07 in 7.0 mi Calm Calm - N/A   Clear
7:50 PM 35.6 °F - 35.6 °F 100% 30.08 in 5.0 mi Calm Calm - N/A   Clear
8:10 PM 35.6 °F 32.8 °F 35.6 °F 100% 30.09 in 7.0 mi South 3.5 mph - N/A   Clear
8:29 PM 35.6 °F - 35.6 °F 100% 30.10 in 7.0 mi Calm Calm - N/A   Clear
8:50 PM 35.6 °F - 35.6 °F 100% 30.11 in 7.0 mi Calm Calm - N/A   Clear
9:10 PM 33.8 °F - 33.8 °F 100% 30.12 in 7.0 mi Calm Calm - N/A   Clear
9:29 PM 33.8 °F 30.8 °F 33.8 °F 100% 30.12 in 7.0 mi SW 3.5 mph - N/A   Clear
9:49 PM 32.0 °F 28.7 °F 32.0 °F 100% 30.13 in 5.0 mi SW 3.5 mph - N/A   Clear
10:09 PM 33.8 °F 29.6 °F 33.8 °F 100% 30.14 in 7.0 mi SW 4.6 mph - N/A   Clear
10:30 PM 35.6 °F 32.8 °F 35.6 °F 100% 30.14 in 10.0 mi WSW 3.5 mph - N/A   Clear
10:49 PM 33.8 °F 30.8 °F 33.8 °F 100% 30.14 in 10.0 mi WNW 3.5 mph - N/A   Clear
11:09 PM 33.8 °F - 30.2 °F 87% 30.14 in 10.0 mi Calm Calm - N/A   Clear
11:30 PM 35.6 °F - 33.8 °F 93% 30.15 in 10.0 mi Calm Calm - N/A   Clear
11:49 PM 33.8 °F - 33.8 °F 100% 30.15 in 7.0 mi Calm Calm - N/A   Clear